GFSNIL_prec_precacc24_159.txt.gz
Total_Precipitation_Accumulation
0.00 0.01 0.02 0.01 0.01 0.10 0.09 0.02 0.05 0.07 0.08 0.07 0.07 0.09 0.13 0.15 0.05 0.04 0.08 0.04 0.01 0.00
0.00 0.00 0.00 0.00 0.02 0.00 0.01 0.01 0.01 0.02 0.04 0.04 0.06 0.06 0.10 0.07 0.07 0.10 0.06 0.05 0.03 0.01
0.00 0.00 0.01 0.05 0.03 0.00 0.00 0.00 0.02 0.02 0.02 0.01 0.07 0.11 0.10 0.02 0.02 0.08 0.06 0.01 0.05 0.04
0.00 0.00 0.00 0.00 0.01 0.00 0.01 0.03 0.02 0.05 0.15 0.07 0.05 0.14 0.16 0.07 0.10 0.17 0.11 0.05 0.08 0.08
0.01 0.02 0.01 0.02 0.01 0.02 0.03 0.05 0.06 0.13 0.21 0.12 0.07 0.22 0.19 0.14 0.11 0.15 0.12 0.18 0.22 0.16
0.06 0.05 0.09 0.14 0.09 0.10 0.09 0.12 0.20 0.17 0.12 0.16 0.18 0.26 0.17 0.24 0.19 0.10 0.12 0.17 0.26 0.33
0.17 0.22 0.32 0.59 0.98 1.22 0.80 0.61 0.48 0.23 0.20 0.16 0.23 0.20 0.16 0.13 0.19 0.18 0.09 0.27 0.48 0.49
0.24 0.38 0.53 0.81 1.28 1.77 1.34 1.10 0.86 0.77 0.62 0.39 0.29 0.18 0.18 0.20 0.24 0.35 0.30 0.37 0.63 0.42
0.43 0.51 0.33 0.38 0.53 0.94 0.95 1.15 1.53 0.94 0.67 0.72 0.59 0.40 0.19 0.26 0.24 0.28 0.29 0.33 0.36 0.20
0.32 0.34 0.35 0.40 0.37 0.39 0.54 0.68 0.57 0.51 0.43 0.36 0.33 0.21 0.27 0.44 0.68 0.51 0.36 0.28 0.22 0.14
0.21 0.30 0.29 0.29 0.24 0.29 0.45 0.46 0.44 0.30 0.24 0.29 0.29 0.40 0.50 0.68 0.76 0.45 0.31 0.22 0.24 0.25
0.10 0.15 0.16 0.15 0.14 0.12 0.15 0.15 0.16 0.21 0.25 0.22 0.13 0.28 0.42 0.74 0.61 0.47 0.33 0.33 0.32 0.27
0.05 0.12 0.09 0.05 0.07 0.07 0.08 0.09 0.11 0.17 0.21 0.20 0.19 0.31 0.47 0.51 0.46 0.51 0.36 0.37 0.40 0.43
0.00 0.02 0.07 0.15 0.13 0.05 0.08 0.15 0.19 0.19 0.20 0.23 0.22 0.26 0.34 0.49 0.42 0.26 0.29 0.27 0.27 0.35

GFSNIL_prec_precacc24_162.txt.gz
Total_Precipitation_Accumulation
0.00 0.01 0.02 0.01 0.01 0.10 0.09 0.02 0.05 0.06 0.05 0.06 0.06 0.08 0.10 0.12 0.05 0.04 0.08 0.04 0.01 0.00
0.00 0.00 0.00 0.00 0.02 0.00 0.01 0.04 0.03 0.02 0.05 0.04 0.05 0.07 0.14 0.07 0.07 0.10 0.06 0.05 0.03 0.01
0.00 0.00 0.01 0.05 0.03 0.00 0.00 0.01 0.05 0.07 0.06 0.02 0.09 0.14 0.12 0.04 0.06 0.10 0.06 0.01 0.05 0.04
0.00 0.00 0.00 0.00 0.01 0.00 0.01 0.03 0.02 0.05 0.15 0.10 0.12 0.14 0.15 0.08 0.16 0.22 0.14 0.06 0.08 0.08
0.03 0.02 0.01 0.02 0.01 0.02 0.03 0.05 0.07 0.14 0.21 0.14 0.10 0.23 0.18 0.17 0.13 0.19 0.16 0.20 0.23 0.16
0.14 0.09 0.10 0.14 0.09 0.10 0.09 0.14 0.25 0.20 0.13 0.17 0.18 0.26 0.18 0.21 0.17 0.12 0.14 0.15 0.26 0.25
0.15 0.26 0.32 0.60 0.99 1.25 0.80 0.61 0.48 0.23 0.20 0.16 0.22 0.20 0.16 0.16 0.19 0.18 0.09 0.27 0.34 0.34
0.22 0.34 0.52 0.89 1.32 1.79 1.34 1.11 0.85 0.76 0.61 0.38 0.28 0.18 0.18 0.20 0.20 0.23 0.17 0.19 0.45 0.29
0.46 0.50 0.36 0.40 0.56 0.94 0.95 1.16 1.54 0.94 0.67 0.72 0.58 0.39 0.19 0.27 0.23 0.23 0.22 0.27 0.36 0.21
0.42 0.37 0.32 0.36 0.35 0.40 0.54 0.68 0.57 0.51 0.42 0.35 0.33 0.20 0.21 0.39 0.66 0.50 0.37 0.28 0.25 0.16
0.36 0.36 0.21 0.22 0.19 0.25 0.41 0.44 0.43 0.28 0.24 0.28 0.28 0.38 0.45 0.63 0.73 0.46 0.36 0.28 0.27 0.26
0.18 0.18 0.12 0.07 0.06 0.06 0.11 0.13 0.15 0.18 0.22 0.17 0.09 0.23 0.35 0.70 0.59 0.42 0.26 0.29 0.36 0.33
0.06 0.07 0.04 0.01 0.01 0.02 0.05 0.07 0.08 0.14 0.18 0.17 0.17 0.25 0.38 0.43 0.38 0.39 0.26 0.31 0.36 0.43
0.02 0.02 0.01 0.01 0.03 0.03 0.05 0.09 0.11 0.13 0.16 0.21 0.21 0.24 0.32 0.47 0.39 0.24 0.28 0.26 0.26 0.34

GFSNIL_prec_precacc24_165.txt.gz
Total_Precipitation_Accumulation
0.00 0.01 0.02 0.01 0.01 0.10 0.09 0.02 0.05 0.06 0.05 0.06 0.06 0.09 0.10 0.11 0.02 0.04 0.08 0.03 0.01 0.00
0.00 0.00 0.00 0.00 0.02 0.00 0.01 0.04 0.04 0.02 0.05 0.04 0.05 0.06 0.15 0.07 0.04 0.09 0.07 0.06 0.04 0.01
0.00 0.00 0.01 0.05 0.03 0.00 0.00 0.01 0.05 0.07 0.06 0.02 0.09 0.14 0.12 0.04 0.05 0.09 0.05 0.01 0.06 0.05
0.00 0.00 0.00 0.00 0.01 0.00 0.01 0.03 0.02 0.04 0.14 0.10 0.12 0.12 0.14 0.07 0.15 0.20 0.14 0.06 0.08 0.08
0.03 0.02 0.01 0.02 0.01 0.02 0.03 0.05 0.07 0.13 0.20 0.14 0.09 0.18 0.14 0.16 0.12 0.19 0.16 0.18 0.25 0.13
0.14 0.09 0.10 0.14 0.09 0.10 0.09 0.14 0.25 0.20 0.13 0.16 0.15 0.20 0.14 0.16 0.13 0.10 0.09 0.11 0.21 0.17
0.15 0.27 0.32 0.60 0.99 1.25 0.80 0.61 0.48 0.22 0.19 0.15 0.17 0.14 0.11 0.12 0.13 0.12 0.05 0.19 0.21 0.12
0.22 0.41 0.65 0.90 1.34 1.79 1.34 1.11 0.85 0.73 0.59 0.35 0.24 0.13 0.13 0.13 0.12 0.13 0.10 0.11 0.24 0.17
0.46 0.50 0.38 0.43 0.57 0.94 0.95 1.16 1.54 0.94 0.67 0.66 0.54 0.32 0.16 0.21 0.16 0.16 0.15 0.14 0.23 0.16
0.41 0.38 0.34 0.37 0.39 0.42 0.57 0.68 0.57 0.51 0.43 0.35 0.29 0.17 0.16 0.33 0.58 0.41 0.29 0.21 0.22 0.16
0.36 0.42 0.24 0.21 0.19 0.25 0.43 0.44 0.43 0.28 0.23 0.25 0.24 0.37 0.39 0.52 0.65 0.41 0.33 0.27 0.26 0.25
0.18 0.19 0.12 0.06 0.04 0.05 0.11 0.13 0.15 0.18 0.22 0.17 0.09 0.22 0.28 0.60 0.52 0.35 0.20 0.26 0.33 0.31
0.08 0.06 0.03 0.01 0.00 0.01 0.02 0.04 0.06 0.10 0.14 0.15 0.16 0.24 0.33 0.36 0.30 0.31 0.21 0.30 0.35 0.41
0.03 0.05 0.03 0.00 0.01 0.01 0.02 0.05 0.08 0.08 0.10 0.16 0.16 0.20 0.25 0.40 0.31 0.18 0.25 0.24 0.25 0.34

GFSNIL_prec_precacc24_168.txt.gz
Total_Precipitation_Accumulation
0.00 0.01 0.02 0.01 0.01 0.08 0.09 0.02 0.05 0.06 0.04 0.02 0.03 0.07 0.09 0.06 0.01 0.02 0.04 0.02 0.01 0.00
0.00 0.00 0.00 0.00 0.02 0.00 0.01 0.04 0.04 0.02 0.05 0.03 0.03 0.03 0.16 0.11 0.04 0.10 0.07 0.07 0.06 0.01
0.00 0.00 0.01 0.05 0.03 0.00 0.00 0.00 0.05 0.07 0.06 0.02 0.07 0.11 0.11 0.05 0.06 0.13 0.07 0.01 0.07 0.06
0.00 0.00 0.00 0.00 0.01 0.00 0.01 0.03 0.02 0.04 0.08 0.07 0.10 0.07 0.08 0.07 0.16 0.19 0.15 0.08 0.09 0.09
0.03 0.02 0.01 0.02 0.01 0.02 0.03 0.05 0.07 0.12 0.16 0.09 0.07 0.08 0.09 0.13 0.11 0.14 0.13 0.13 0.27 0.09
0.14 0.09 0.10 0.14 0.09 0.10 0.09 0.14 0.25 0.20 0.12 0.12 0.10 0.12 0.12 0.12 0.11 0.07 0.06 0.08 0.14 0.10
0.15 0.27 0.32 0.60 0.99 1.25 0.80 0.61 0.48 0.22 0.19 0.14 0.16 0.13 0.09 0.10 0.09 0.08 0.03 0.10 0.14 0.09
0.22 0.41 0.65 0.90 1.34 1.79 1.34 1.10 0.85 0.72 0.59 0.35 0.24 0.13 0.14 0.11 0.09 0.07 0.06 0.07 0.12 0.11
0.46 0.50 0.38 0.43 0.57 0.94 0.96 1.16 1.54 0.93 0.66 0.66 0.54 0.33 0.16 0.19 0.13 0.10 0.08 0.09 0.13 0.13
0.40 0.38 0.34 0.37 0.38 0.43 0.67 0.72 0.57 0.52 0.43 0.36 0.30 0.18 0.17 0.33 0.54 0.36 0.21 0.15 0.15 0.13
0.36 0.41 0.23 0.21 0.18 0.24 0.48 0.47 0.48 0.34 0.30 0.26 0.24 0.36 0.39 0.52 0.59 0.36 0.28 0.22 0.22 0.23
0.19 0.19 0.14 0.07 0.04 0.07 0.15 0.17 0.19 0.19 0.21 0.16 0.07 0.19 0.24 0.58 0.48 0.31 0.19 0.25 0.31 0.28
0.22 0.16 0.13 0.08 0.02 0.01 0.01 0.01 0.02 0.05 0.09 0.09 0.10 0.18 0.28 0.33 0.28 0.30 0.20 0.29 0.33 0.40
0.27 0.33 0.21 0.10 0.02 0.01 0.00 0.01 0.02 0.04 0.06 0.08 0.10 0.14 0.18 0.35 0.28 0.16 0.22 0.22 0.23 0.32

GFSNIL_prec_precacc24_171.txt.gz
Total_Precipitation_Accumulation
0.00 0.01 0.02 0.01 0.01 0.08 0.09 0.02 0.04 0.06 0.04 0.02 0.02 0.05 0.03 0.03 0.02 0.02 0.06 0.02 0.01 0.00
0.00 0.00 0.00 0.00 0.02 0.00 0.01 0.04 0.04 0.02 0.05 0.03 0.03 0.03 0.15 0.13 0.04 0.10 0.06 0.07 0.06 0.02
0.00 0.00 0.01 0.05 0.03 0.00 0.00 0.00 0.05 0.07 0.06 0.02 0.07 0.11 0.17 0.07 0.06 0.16 0.09 0.01 0.07 0.08
0.00 0.00 0.00 0.00 0.01 0.00 0.01 0.03 0.02 0.03 0.07 0.07 0.10 0.12 0.16 0.09 0.16 0.18 0.14 0.07 0.08 0.09
0.03 0.02 0.01 0.02 0.01 0.02 0.02 0.05 0.07 0.10 0.11 0.09 0.07 0.09 0.11 0.14 0.11 0.14 0.12 0.11 0.24 0.06
0.14 0.09 0.10 0.14 0.09 0.09 0.04 0.11 0.25 0.19 0.10 0.09 0.09 0.10 0.12 0.12 0.12 0.08 0.06 0.07 0.08 0.06
0.15 0.27 0.32 0.60 0.99 1.25 0.72 0.53 0.44 0.21 0.19 0.14 0.16 0.12 0.09 0.13 0.11 0.10 0.04 0.13 0.15 0.08
0.19 0.41 0.65 0.88 1.30 1.75 1.28 1.06 0.80 0.67 0.56 0.34 0.24 0.14 0.17 0.13 0.15 0.12 0.08 0.06 0.05 0.04
0.40 0.46 0.35 0.37 0.54 0.90 0.93 1.17 1.52 0.94 0.71 0.75 0.77 0.59 0.25 0.22 0.16 0.11 0.05 0.04 0.05 0.05
0.38 0.32 0.22 0.25 0.28 0.36 0.63 0.80 0.60 0.59 0.53 0.46 0.37 0.25 0.17 0.32 0.54 0.36 0.19 0.11 0.09 0.05
0.36 0.41 0.22 0.18 0.14 0.19 0.41 0.46 0.47 0.39 0.32 0.24 0.24 0.37 0.39 0.51 0.59 0.36 0.25 0.18 0.15 0.15
0.19 0.20 0.15 0.10 0.10 0.09 0.13 0.13 0.17 0.10 0.09 0.07 0.03 0.18 0.23 0.55 0.48 0.30 0.15 0.21 0.27 0.24
0.23 0.20 0.18 0.18 0.18 0.22 0.09 0.05 0.03 0.01 0.02 0.02 0.02 0.08 0.15 0.23 0.26 0.25 0.17 0.27 0.32 0.36
0.29 0.36 0.23 0.20 0.17 0.15 0.09 0.06 0.01 0.00 0.01 0.02 0.02 0.03 0.02 0.16 0.18 0.10 0.20 0.21 0.21 0.31

GFSNIL_prec_precacc24_174.txt.gz
Total_Precipitation_Accumulation
0.00 0.01 0.02 0.01 0.00 0.05 0.04 0.02 0.03 0.01 0.01 0.01 0.02 0.05 0.03 0.02 0.01 0.01 0.09 0.07 0.02 0.00
0.00 0.00 0.00 0.00 0.01 0.00 0.00 0.04 0.04 0.01 0.03 0.02 0.01 0.02 0.15 0.11 0.03 0.05 0.09 0.07 0.05 0.02
0.00 0.00 0.00 0.01 0.00 0.00 0.00 0.00 0.04 0.07 0.07 0.03 0.07 0.12 0.22 0.08 0.06 0.16 0.09 0.03 0.09 0.08
0.00 0.00 0.00 0.00 0.00 0.00 0.00 0.00 0.00 0.02 0.07 0.06 0.10 0.17 0.21 0.17 0.17 0.25 0.14 0.08 0.09 0.11
0.02 0.00 0.00 0.00 0.00 0.00 0.00 0.01 0.04 0.06 0.10 0.11 0.07 0.15 0.17 0.16 0.14 0.18 0.17 0.14 0.24 0.07
0.09 0.06 0.07 0.02 0.02 0.00 0.00 0.10 0.21 0.14 0.07 0.07 0.07 0.10 0.12 0.10 0.10 0.07 0.04 0.06 0.09 0.10
0.07 0.20 0.30 0.57 0.94 1.19 0.65 0.50 0.41 0.17 0.16 0.11 0.14 0.08 0.06 0.09 0.09 0.07 0.04 0.15 0.17 0.12
0.02 0.24 0.53 0.79 1.19 1.65 1.18 1.04 0.79 0.62 0.51 0.31 0.23 0.13 0.18 0.13 0.16 0.14 0.06 0.08 0.07 0.02
0.29 0.32 0.25 0.23 0.38 0.80 0.85 1.08 1.47 0.91 0.69 0.74 0.88 0.81 0.40 0.33 0.25 0.15 0.05 0.02 0.01 0.01
0.35 0.30 0.18 0.18 0.16 0.17 0.33 0.48 0.44 0.49 0.51 0.61 0.85 0.68 0.33 0.36 0.53 0.35 0.17 0.08 0.06 0.03
0.36 0.41 0.22 0.17 0.12 0.10 0.21 0.28 0.31 0.31 0.23 0.46 0.32 0.50 0.40 0.54 0.59 0.36 0.25 0.14 0.12 0.11
0.19 0.20 0.15 0.11 0.12 0.12 0.17 0.20 0.19 0.12 0.06 0.13 0.07 0.09 0.10 0.43 0.45 0.29 0.14 0.19 0.24 0.22
0.24 0.21 0.23 0.28 0.37 0.41 0.27 0.15 0.12 0.23 0.13 0.04 0.01 0.00 0.02 0.08 0.18 0.16 0.11 0.18 0.27 0.31
0.29 0.38 0.34 0.38 0.40 0.32 0.20 0.26 0.12 0.09 0.02 0.01 0.00 0.00 0.00 0.04 0.05 0.01 0.08 0.11 0.16 0.19

GFSNIL_prec_precacc24_180.txt.gz
Total_Precipitation_Accumulation
0.00 0.00 0.00 0.00 0.00 0.00 0.00 0.00 0.01 0.00 0.00 0.00 0.02 0.05 0.02 0.02 0.01 0.01 0.08 0.07 0.02 0.00
0.00 0.00 0.00 0.00 0.00 0.00 0.01 0.05 0.06 0.01 0.03 0.03 0.02 0.03 0.15 0.08 0.02 0.04 0.09 0.06 0.05 0.02
0.00 0.00 0.00 0.00 0.00 0.00 0.00 0.01 0.04 0.09 0.11 0.05 0.08 0.12 0.23 0.08 0.06 0.16 0.09 0.02 0.10 0.10
0.00 0.00 0.00 0.00 0.00 0.00 0.00 0.00 0.00 0.01 0.08 0.08 0.10 0.17 0.22 0.17 0.17 0.25 0.14 0.08 0.09 0.12
0.02 0.00 0.00 0.00 0.00 0.00 0.00 0.00 0.02 0.04 0.08 0.09 0.06 0.15 0.18 0.16 0.14 0.18 0.17 0.13 0.23 0.07
0.08 0.04 0.01 0.00 0.00 0.00 0.00 0.08 0.18 0.11 0.07 0.07 0.07 0.10 0.11 0.10 0.10 0.07 0.04 0.06 0.09 0.10
0.01 0.05 0.01 0.05 0.13 0.40 0.23 0.16 0.14 0.07 0.08 0.09 0.14 0.08 0.05 0.08 0.09 0.07 0.04 0.15 0.17 0.13
0.00 0.08 0.24 0.29 0.45 0.52 0.38 0.26 0.23 0.13 0.14 0.13 0.13 0.08 0.10 0.07 0.16 0.18 0.10 0.09 0.07 0.04
0.21 0.26 0.22 0.12 0.12 0.15 0.21 0.37 0.52 0.18 0.16 0.28 0.68 0.82 0.45 0.36 0.31 0.25 0.11 0.08 0.04 0.01
0.32 0.26 0.13 0.14 0.13 0.10 0.25 0.31 0.22 0.24 0.29 0.46 1.07 0.87 0.46 0.43 0.48 0.34 0.19 0.10 0.06 0.03
0.29 0.35 0.16 0.13 0.10 0.07 0.18 0.24 0.28 0.28 0.26 0.84 0.46 0.76 0.62 0.47 0.41 0.34 0.18 0.10 0.05 0.02
0.17 0.18 0.14 0.11 0.12 0.13 0.23 0.24 0.30 0.33 0.65 0.94 1.08 0.90 0.61 0.30 0.08 0.05 0.04 0.07 0.08 0.08
0.24 0.21 0.24 0.32 0.44 0.57 0.51 0.59 1.02 1.45 1.30 1.14 1.16 1.25 0.86 0.23 0.04 0.03 0.01 0.00 0.01 0.02
0.30 0.39 0.41 0.41 0.46 0.41 0.52 0.73 0.57 0.60 0.42 0.59 0.46 0.19 0.13 0.09 0.04 0.01 0.00 0.00 0.00 0.01

GFSNIL_prec_precacc24_183.txt.gz
Total_Precipitation_Accumulation
0.00 0.00 0.00 0.00 0.00 0.00 0.00 0.00 0.01 0.00 0.00 0.00 0.02 0.05 0.02 0.02 0.01 0.01 0.08 0.07 0.02 0.00
0.00 0.00 0.00 0.00 0.00 0.00 0.01 0.05 0.06 0.01 0.03 0.03 0.02 0.04 0.15 0.08 0.02 0.04 0.09 0.06 0.05 0.02
0.00 0.00 0.00 0.00 0.00 0.00 0.00 0.01 0.05 0.09 0.11 0.05 0.04 0.07 0.21 0.08 0.06 0.16 0.09 0.02 0.10 0.10
0.00 0.00 0.00 0.00 0.00 0.00 0.00 0.00 0.00 0.01 0.07 0.13 0.11 0.17 0.22 0.16 0.15 0.24 0.14 0.08 0.09 0.12
0.02 0.00 0.00 0.00 0.00 0.00 0.00 0.00 0.02 0.02 0.03 0.07 0.06 0.15 0.18 0.16 0.14 0.17 0.17 0.17 0.25 0.07
0.08 0.04 0.01 0.00 0.00 0.00 0.00 0.02 0.04 0.03 0.01 0.02 0.01 0.05 0.07 0.06 0.06 0.05 0.03 0.10 0.11 0.10
0.01 0.05 0.00 0.01 0.01 0.03 0.00 0.00 0.00 0.00 0.00 0.00 0.01 0.00 0.01 0.07 0.09 0.07 0.03 0.14 0.17 0.13
0.00 0.07 0.14 0.10 0.07 0.02 0.00 0.00 0.01 0.00 0.01 0.01 0.00 0.03 0.07 0.04 0.14 0.16 0.09 0.09 0.07 0.07
0.05 0.09 0.17 0.11 0.06 0.01 0.02 0.05 0.04 0.03 0.09 0.13 0.37 0.58 0.36 0.30 0.26 0.22 0.12 0.13 0.15 0.11
0.15 0.14 0.08 0.05 0.08 0.06 0.15 0.19 0.12 0.17 0.22 0.41 0.99 0.76 0.40 0.38 0.35 0.33 0.30 0.20 0.13 0.05
0.21 0.28 0.09 0.05 0.04 0.02 0.11 0.17 0.23 0.26 0.27 0.98 0.58 0.93 0.88 0.65 0.46 0.39 0.34 0.23 0.11 0.04
0.14 0.14 0.11 0.08 0.11 0.12 0.21 0.22 0.28 0.31 0.71 1.20 1.36 1.28 0.97 0.59 0.36 0.31 0.23 0.16 0.12 0.10
0.23 0.20 0.23 0.32 0.44 0.57 0.51 0.59 1.03 1.56 1.47 1.38 1.34 1.48 1.12 0.47 0.17 0.21 0.27 0.12 0.04 0.04
0.30 0.39 0.41 0.41 0.46 0.41 0.57 0.79 0.63 0.68 0.45 0.63 0.52 0.30 0.21 0.10 0.05 0.01 0.03 0.03 0.01 0.00

GFSNIL_prec_precacc24_186.txt.gz
Total_Precipitation_Accumulation
0.00 0.00 0.00 0.00 0.00 0.00 0.00 0.00 0.01 0.00 0.00 0.00 0.02 0.02 0.02 0.02 0.01 0.01 0.08 0.07 0.02 0.00
0.00 0.00 0.00 0.00 0.00 0.00 0.01 0.02 0.03 0.00 0.02 0.03 0.02 0.03 0.12 0.12 0.03 0.04 0.09 0.06 0.05 0.02
0.00 0.00 0.00 0.00 0.00 0.00 0.00 0.00 0.02 0.04 0.07 0.05 0.05 0.04 0.21 0.14 0.17 0.18 0.10 0.02 0.10 0.10
0.00 0.00 0.00 0.00 0.00 0.00 0.00 0.00 0.00 0.01 0.07 0.13 0.07 0.17 0.22 0.36 0.27 0.31 0.20 0.10 0.10 0.13
0.00 0.00 0.00 0.00 0.00 0.00 0.00 0.00 0.00 0.00 0.02 0.07 0.07 0.18 0.18 0.13 0.16 0.15 0.15 0.16 0.26 0.09
0.00 0.00 0.00 0.00 0.00 0.00 0.00 0.00 0.00 0.00 0.00 0.00 0.02 0.06 0.07 0.08 0.08 0.04 0.01 0.07 0.14 0.13
0.00 0.00 0.00 0.00 0.00 0.00 0.00 0.00 0.00 0.00 0.00 0.00 0.01 0.01 0.01 0.04 0.05 0.03 0.01 0.11 0.13 0.13
0.00 0.06 0.13 0.01 0.01 0.00 0.00 0.00 0.00 0.00 0.00 0.00 0.00 0.03 0.07 0.04 0.14 0.16 0.09 0.09 0.07 0.06
0.00 0.00 0.02 0.03 0.01 0.00 0.02 0.04 0.03 0.03 0.09 0.13 0.37 0.58 0.36 0.29 0.26 0.22 0.12 0.13 0.15 0.12
0.00 0.01 0.02 0.01 0.03 0.03 0.15 0.19 0.12 0.16 0.22 0.41 0.99 0.75 0.41 0.38 0.36 0.34 0.30 0.21 0.14 0.08
0.01 0.06 0.02 0.00 0.01 0.01 0.11 0.17 0.23 0.26 0.27 0.98 0.58 0.91 0.87 0.64 0.47 0.42 0.31 0.15 0.08 0.06
0.01 0.02 0.04 0.05 0.09 0.11 0.21 0.22 0.28 0.31 0.71 1.20 1.37 1.29 1.07 0.63 0.40 0.31 0.23 0.16 0.16 0.15
0.18 0.15 0.21 0.32 0.45 0.58 0.51 0.59 1.04 1.56 1.49 1.40 1.35 1.62 1.34 0.60 0.25 0.22 0.28 0.21 0.17 0.24
0.28 0.38 0.41 0.42 0.50 0.46 0.60 0.81 0.66 0.71 0.48 0.65 0.52 0.30 0.21 0.16 0.06 0.02 0.03 0.04 0.04 0.02